Tucson Davis Monthan, AZ

9:45 AM MST on June 24, 2018 (GMT -0700)
Davis-Monthan Air Force Base

Weather History for KDMA - October, 2017

Change the Weather History Date:

Sunday, October 15, 2017

  Actual Average Record
Temperature  
Mean Temperature 78 °F -  
Max Temperature 95 °F 84 °F 98 °F (1991)
Min Temperature 61 °F 55 °F 43 °F (1975)
Cooling Degree Days 13    
Growing Degree Days 28 (Base 50)    
Moisture  
Dew Point 26 °F    
Average Humidity 16    
Maximum Humidity 26    
Minimum Humidity 9    
Precipitation  
Precipitation 0.00 in - - ()
Sea Level Pressure  
Sea Level Pressure 30.09 in    
Wind  
Wind Speed 3 mph (SE)    
Max Wind Speed 10 mph    
Max Gust Speed -    
Visibility 10 miles    
Events      
Averages and records for this station are not official NWS values.
T = Trace of Precipitation, MM = Missing Value Source: NWS Daily Summary

Daily Weather History Graph

Daily Weather History Graph

Search for Another Location

Airport or City:

Astronomy

Oct. 15, 2017 Rise Set
Actual Time 6:27 AM MST 5:50 PM MST
Civil Twilight 6:02 AM MST 6:15 PM MST
Nautical Twilight 5:34 AM MST 6:43 PM MST
Astronomical Twilight 5:05 AM MST 7:11 PM MST
Moon 2:20 AM MST (10/15) 3:44 PM MST (10/15)
Length of Visible Light 12h 12m
Length of Day
11h 23m
Waning Crescent, 17% of the Moon is Illuminated
Oct 15
Waning Crescent
Oct 19
New
Oct 27
First Quarter
Nov 3
Full
Nov 10
Last Quarter

Hourly Weather History & Observations

Time (MST) Temp. Dew Point Humidity Pressure Visibility Wind Dir Wind Speed Gust Speed Precip Events Conditions
12:58 AM 64.4 °F 26.2 °F 24% 29.99 in 10.0 mi ESE 3.5 mph - N/A   Clear
1:56 AM 64.4 °F 26.2 °F 24% 29.99 in 10.0 mi ESE 4.6 mph - N/A   Clear
2:57 AM 61.9 °F 26.8 °F 26% 30.00 in 10.0 mi East 2.3 mph - N/A   Clear
3:55 AM 63.9 °F 26.4 °F 24% 30.01 in 10.0 mi East 3.5 mph - N/A   Clear
4:58 AM 63.1 °F 26.4 °F 25% 30.03 in 10.0 mi ESE 3.5 mph - N/A   Clear
5:56 AM 64.0 °F 26.1 °F 24% 30.04 in 10.0 mi SE 2.3 mph - N/A   Clear
6:56 AM 64.4 °F 26.4 °F 24% 30.06 in 10.0 mi Variable 2.3 mph - N/A   Clear
7:55 AM 69.8 °F 26.4 °F 20% 30.17 in 10.0 mi Variable 2.3 mph - N/A   Scattered Clouds
8:55 AM 75.2 °F 26.4 °F 16% 30.18 in 10.0 mi Variable 1.2 mph - N/A   Scattered Clouds
9:55 AM 82.4 °F 26.4 °F 13% 30.18 in 10.0 mi Variable 2.3 mph - N/A   Partly Cloudy
10:55 AM 86.0 °F 26.4 °F 11% 30.16 in 10.0 mi Variable 2.3 mph - N/A   Scattered Clouds
12:55 PM 93.2 °F 26.4 °F 9% 30.12 in 10.0 mi Variable 4.6 mph - N/A   Scattered Clouds
1:55 PM 95.0 °F 26.4 °F 9% 30.10 in 10.0 mi Variable 4.6 mph - N/A   Scattered Clouds
2:55 PM 95.0 °F 26.4 °F 9% 30.08 in 10.0 mi Variable 2.3 mph - N/A   Scattered Clouds
3:55 PM 95.0 °F 26.4 °F 9% 30.07 in 10.0 mi NW 4.6 mph - N/A   Scattered Clouds
4:57 PM 92.1 °F 24.4 °F 9% 30.07 in 10.0 mi NW 3.5 mph - N/A   Scattered Clouds
5:56 PM 87.4 °F 23.4 °F 10% 30.08 in 10.0 mi NW 2.3 mph - N/A   Partly Cloudy
6:58 PM 84.4 °F 22.8 °F 10% 30.10 in 10.0 mi NW 1.2 mph - N/A   Partly Cloudy
7:57 PM 80.4 °F 22.6 °F 12% 30.13 in 10.0 mi WNW 1.2 mph - N/A   Clear
8:56 PM 79.0 °F 21.9 °F 12% 30.15 in 10.0 mi SW 2.3 mph - N/A   Clear
9:57 PM 77.2 °F 24.3 °F 14% 30.16 in 10.0 mi South 1.2 mph - N/A   Clear
10:56 PM 78.3 °F 27.0 °F 15% 30.17 in 10.0 mi SE 10.4 mph - N/A   Clear
11:58 PM 78.3 °F 26.4 °F 15% 30.02 in 10.0 mi SE 6.9 mph - N/A   Clear